Location: Gerlach
(40.6516°N, 119.3568°W)
Time: 16:25:46
(UTC-07:00)

A-11 Canister half - Pass Details

Date: 26 February 2024
Orbit: 1525 x 1683 km, 47.3° (Epoch: 22 April)

Event Time Altitude Azimuth Distance (km) Brightness Sun altitude
Rises 19:46:21 0° 226° (SW) 4,799 12.1 -23.7°
Reaches altitude 10° 19:49:30 10° 224° (SW) 3,794 11.5 -24.3°
Maximum altitude 19:58:59 68° 144° (SE) 1,657 8.9 -26.1°
Enters shadow 20:02:15 44° 79° (E) 2,028 9.1 -26.7°
